Find Kuiper-00192

NORAD ID: 68575 Int'l Des: 2026-072 Owner: KUIP Country: US Constellation: kuiper operational
LEOCIRCULAR

Live Position

Loading 3D Globe...

About Kuiper-00192

Description loading...

Upcoming Passes

Passes for default location (London). Set your location on the main map for personalized predictions.

Altitude History

Loading altitude history...

Two-Line Element Set

1 68575U 26072C 26107.88712232 .00011542 00000-0 31737-3 0 9994
2 68575 51.8736 108.5275 0005028 140.1870 219.9486 15.37647406 2102
Epoch: Apr 17, 2026 • Age: 75 hours

Current Status

Altitude 450.5 km
Velocity 7.65 km/s
Sub-Earth Point 26.93°N, 29.01°E
Launch Date Apr 4, 2026
Age 17 days
Type internet

Technical Details

Classification Payload
Mass 490.00 kg
Dry Mass 490.00 kg
Total Mass 490.00 kg
Length 1.80 m
Diameter 0.70 m
Span 5.00 m
Shape Box + 2 pan
Manufacturer KUIP
Bus Type Kuiper
Phase Status In Orbit
Owner/State KUIP/US

Most Searched